| time (UTC) | temp C | wind direction | speed KPH | gust KPH | rain 1hr cm | rain 24hr cm | rain mn cm | humidity % | barometer mb |
| 20260505171521 | 28 | 225 | 6.4 | 24.1 | 0.00 | 0.00 | 0.00 | 40 | 1008.7 |
| 20260505170012 | 28 | 209 | 4.8 | 25.7 | 0.00 | 0.00 | 0.00 | 40 | 1008.6 |
| 20260505164509 | 28 | 209 | 4.8 | 20.9 | 0.00 | 0.00 | 0.00 | 42 | 1009.0 |
| 20260505163011 | 28 | 24 | 8.0 | 25.7 | 0.00 | 0.00 | 0.00 | 42 | 1009.2 |
| 20260505161509 | 28 | 245 | 6.4 | 20.9 | 0.00 | 0.00 | 0.00 | 42 | 1009.1 |
| 20260505153159 | 27 | 284 | 6.4 | 22.5 | 0.00 | 0.00 | 0.00 | 45 | 1009.4 |
| 20260505151555 | 26 | 282 | 4.8 | 12.9 | 0.00 | 0.00 | 0.00 | 46 | 1009.5 |
| 20260505124520 | 18 | 159 | 1.6 | 17.7 | 0.00 | 0.00 | 0.00 | 63 | 1010.7 |
| 20260505123020 | 18 | 265 | 4.8 | 16.1 | 0.00 | 0.00 | 0.00 | 63 | 1010.6 |
| 20260505121516 | 18 | 200 | 1.6 | 12.9 | 0.00 | 0.00 | 0.00 | 65 | 1010.5 |
| 20260505120015 | 17 | 195 | 3.2 | 9.7 | 0.00 | 0.00 | 0.00 | 66 | 1010.4 |
| 20260505114515 | 17 | 265 | 3.2 | 9.7 | 0.00 | 0.00 | 0.00 | 66 | 1010.6 |
| 20260505113026 | 17 | 184 | 1.6 | 11.3 | 0.00 | 0.00 | 0.00 | 66 | 1010.2 |
| 20260505111525 | 17 | 184 | 3.2 | 11.3 | 0.00 | 0.00 | 0.00 | 67 | 1010.1 |
| 20260505101521 | 15 | 309 | 0.0 | 4.8 | 0.00 | 0.00 | 0.00 | 73 | 1009.6 |
| 20260505100009 | 15 | 172 | 1.6 | 6.4 | 0.00 | 0.00 | 0.00 | 72 | 1009.4 |
| 20260505094509 | 15 | 165 | 1.6 | 11.3 | 0.00 | 0.00 | 0.00 | 73 | 1009.3 |
| 20260505093008 | 14 | 189 | 1.6 | 6.4 | 0.00 | 0.00 | 0.00 | 77 | 1009.4 |
| 20260505091507 | 14 | 256 | 0.0 | 3.2 | 0.00 | 0.00 | 0.00 | 77 | 1009.4 |
| 20260505090005 | 15 | 351 | 0.0 | 3.2 | 0.00 | 0.00 | 0.00 | 74 | 1009.4 |
| 20260505084607 | 15 | 351 | 0.0 | 3.2 | 0.00 | 0.00 | 0.00 | 73 | 1009.4 |
| 20260505083108 | 16 | 103 | 0.0 | 3.2 | 0.00 | 0.00 | 0.00 | 69 | 1009.3 |
| 20260505081554 | 16 | 314 | 0.0 | 3.2 | 0.00 | 0.00 | 0.00 | 67 | 1009.2 |
| 20260505080055 | 16 | 159 | 1.6 | 9.7 | 0.00 | 0.00 | 0.00 | 69 | 1009.1 |
| 20260505074557 | 16 | 122 | 0.0 | 3.2 | 0.00 | 0.00 | 0.00 | 70 | 1009.1 |
| 20260505073054 | 16 | 65 | 0.0 | 3.2 | 0.00 | 0.00 | 0.00 | 68 | 1009.1 |
| 20260505071550 | 16 | 355 | 0.0 | 3.2 | 0.00 | 0.00 | 0.00 | 67 | 1009.3 |
| 20260505070100 | 17 | 194 | 0.0 | 4.8 | 0.00 | 0.00 | 0.00 | 65 | 1009.3 |
| 20260505064610 | 17 | 95 | 0.0 | 16.1 | 0.00 | 0.00 | 0.00 | 64 | 1009.4 |
| 20260505063042 | 17 | 282 | 1.6 | 6.4 | 0.00 | 0.00 | 0.00 | 63 | 1009.4 |
| 20260505061608 | 17 | 198 | 3.2 | 12.9 | 0.00 | 0.00 | 0.00 | 63 | 1009.2 |
| 20260505060051 | 17 | 161 | 4.8 | 16.1 | 0.00 | 0.00 | 0.00 | 62 | 1009.2 |
| 20260505054548 | 17 | 136 | 6.4 | 17.7 | 0.00 | 0.00 | 0.00 | 62 | 1009.2 |
| 20260505053036 | 17 | 204 | 3.2 | 17.7 | 0.00 | 0.00 | 0.00 | 61 | 1009.1 |
| 20260505051540 | 17 | 213 | 4.8 | 14.5 | 0.00 | 0.00 | 0.00 | 61 | 1009.2 |
| 20260505041535 | 18 | 200 | 3.2 | 11.3 | 0.00 | 0.00 | 0.00 | 56 | 1009.2 |
| 20260505040039 | 18 | 190 | 9.7 | 19.3 | 0.00 | 0.00 | 0.00 | 55 | 1009.1 |
| 20260505034538 | 18 | 215 | 4.8 | 14.5 | 0.00 | 0.00 | 0.00 | 54 | 1009.0 |
| 20260505033031 | 18 | 246 | 6.4 | 20.9 | 0.00 | 0.00 | 0.00 | 54 | 1008.8 |
| 20260505031530 | 18 | 191 | 3.2 | 16.1 | 0.00 | 0.00 | 0.00 | 54 | 1008.9 |
| 20260505030033 | 18 | 163 | 1.6 | 14.5 | 0.00 | 0.00 | 0.00 | 54 | 1008.8 |
| 20260505024526 | 18 | 216 | 6.4 | 14.5 | 0.00 | 0.00 | 0.00 | 53 | 1009.0 |
| 20260505023032 | 18 | 180 | 4.8 | 11.3 | 0.00 | 0.00 | 0.00 | 52 | 1009.1 |
| 20260505021534 | 18 | 218 | 4.8 | 9.7 | 0.00 | 0.00 | 0.00 | 52 | 1009.1 |
| 20260505020016 | 18 | 155 | 6.4 | 16.1 | 0.00 | 0.00 | 0.00 | 51 | 1009.2 |
| 20260505014517 | 18 | 165 | 3.2 | 14.5 | 0.00 | 0.00 | 0.00 | 51 | 1009.3 |
| 20260505013016 | 18 | 207 | 3.2 | 11.3 | 0.00 | 0.00 | 0.00 | 51 | 1009.2 |
| 20260505011513 | 18 | 148 | 4.8 | 9.7 | 0.00 | 0.00 | 0.00 | 51 | 1009.1 |
| 20260505010011 | 18 | 184 | 4.8 | 12.9 | 0.00 | 0.00 | 0.00 | 51 | 1009.0 |
| 20260505004516 | 19 | 161 | 4.8 | 11.3 | 0.00 | 0.00 | 0.00 | 51 | 1008.8 |
| 20260505003008 | 19 | 170 | 3.2 | 11.3 | 0.00 | 0.00 | 0.00 | 50 | 1008.8 |
| 20260505001509 | 20 | 234 | 4.8 | 16.1 | 0.00 | 0.00 | 0.00 | 48 | 1008.7 |
| 20260505000014 | 20 | 167 | 3.2 | 16.1 | 0.00 | 0.00 | 0.00 | 47 | 1008.6 |
| 20260504234510 | 20 | 240 | 4.8 | 17.7 | 0.00 | 0.00 | 0.00 | 47 | 1008.5 |
| 20260504233008 | 21 | 171 | 6.4 | 12.9 | 0.00 | 0.00 | 0.00 | 46 | 1008.4 |
| 20260504231509 | 21 | 202 | 6.4 | 19.3 | 0.00 | 0.00 | 0.00 | 45 | 1008.4 |
| 20260504230006 | 21 | 173 | 4.8 | 16.1 | 0.00 | 0.00 | 0.00 | 44 | 1008.4 |
| 20260504224508 | 22 | 192 | 4.8 | 14.5 | 0.00 | 0.00 | 0.00 | 43 | 1008.3 |
| 20260504223005 | 22 | 155 | 8.0 | 16.1 | 0.00 | 0.00 | 0.00 | 42 | 1008.3 |
| 20260504221504 | 23 | 168 | 6.4 | 17.7 | 0.00 | 0.00 | 0.00 | 42 | 1008.3 |
| 20260504220011 | 23 | 193 | 3.2 | 17.7 | 0.00 | 0.00 | 0.00 | 39 | 1008.3 |
| 20260504214600 | 24 | 219 | 3.2 | 11.3 | 0.00 | 0.00 | 0.00 | 39 | 1008.4 |
| 20260504213110 | 24 | 246 | 6.4 | 14.5 | 0.00 | 0.00 | 0.00 | 38 | 1008.4 |
| 20260504211559 | 24 | 242 | 4.8 | 12.9 | 0.00 | 0.00 | 0.00 | 39 | 1008.5 |
| 20260504210054 | 24 | 165 | 4.8 | 22.5 | 0.00 | 0.00 | 0.00 | 40 | 1008.5 |
| 20260504204602 | 24 | 227 | 6.4 | 20.9 | 0.00 | 0.00 | 0.00 | 39 | 1008.7 |
| 20260504203058 | 24 | 155 | 6.4 | 19.3 | 0.00 | 0.00 | 0.00 | 39 | 1008.8 |
| 20260504201552 | 24 | 153 | 4.8 | 19.3 | 0.00 | 0.00 | 0.00 | 39 | 1008.9 |
| 20260504200054 | 25 | 220 | 4.8 | 17.7 | 0.00 | 0.00 | 0.00 | 38 | 1009.1 |
| 20260504194551 | 24 | 178 | 6.4 | 19.3 | 0.00 | 0.00 | 0.00 | 39 | 1009.3 |
| 20260504193059 | 24 | 132 | 4.8 | 16.1 | 0.00 | 0.00 | 0.00 | 39 | 1009.4 |
| 20260504191545 | 23 | 218 | 4.8 | 20.9 | 0.00 | 0.00 | 0.00 | 39 | 1009.7 |
| 20260504190052 | 23 | 248 | 6.4 | 20.9 | 0.00 | 0.00 | 0.00 | 40 | 1009.7 |
| 20260504184547 | 23 | 188 | 3.2 | 16.1 | 0.00 | 0.00 | 0.00 | 38 | 1009.9 |
| 20260504183056 | 23 | 121 | 4.8 | 12.9 | 0.00 | 0.00 | 0.00 | 43 | 1010.1 |
| 20260504181537 | 23 | 155 | 4.8 | 20.9 | 0.00 | 0.00 | 0.00 | 40 | 1010.3 |
| 20260504180049 | 22 | 252 | 8.0 | 20.9 | 0.00 | 0.00 | 0.00 | 39 | 1010.5 |
| 20260504174533 | 22 | 220 | 8.0 | 19.3 | 0.00 | 0.00 | 0.00 | 41 | 1010.7 |
| 20260504173035 | 22 | 159 | 4.8 | 12.9 | 0.00 | 0.00 | 0.00 | 43 | 1010.9 |